[[{"header":{"parameterUnit":"m.s-1","parameterCategory":1,"la1":30.2991,"la2":30.254,"lo1":-89.0895,"lo2":-89.0444,"dy":0.0017,"dx":0.0017,"nx":28,"ny":28,"refTime":"2024-03-31T03:00:00:Z","depth":0,"parameterNumber":2,"parameterNumberName":"U-component_of_WINDS"},"data":[0,0,0,0,0,0,0,0,0,0,0,0,0,0,0,0,0,0,0,0,0,0,0,0,0,0,0,0,0,0,0,0,0,0,0,0,0,0,0,0,0,0,0,0,0,0,0,0,0,0,0,0,0,0,0,0,0,0,-0.9423,-0.9423,0,-0.9409,-0.9409,-0.9408,-0.94,-0.94,-0.94,-0.9399,-0.9386,-0.9385,-0.9385,0,0,0,0,0,0,0,0,0,0,0,0,0,-0.9442,-0.9442,-0.9423,-0.9423,-0.9422,-0.9409,-0.9409,-0.9408,-0.94,-0.94,-0.9399,-0.9399,-0.9386,-0.9385,-0.9385,0,0,0,0,0,0,0,0,0,0,0,0,0,-0.9432,-0.9442,-0.9423,-0.9416,-0.9416,-0.9409,-0.9409,-0.9408,-0.94,-0.94,-0.9399,-0.9399,-0.9386,-0.9385,-0.9385,-0.9383,0,0,-0.9383,-0.9383,0,0,0,0,0,0,0,0,-0.9432,-0.9431,-0.9417,-0.9417,-0.9416,-0.9406,-0.941,-0.94,-0.94,-0.9406,-0.9399,-0.9399,-0.9392,-0.9391,-0.9389,-0.9383,-0.9382,-0.9383,-0.9383,-0.9383,-0.9383,0,0,0,0,0,0,0,-0.9433,-0.9432,-0.9417,-0.9417,-0.9416,-0.9414,-0.9413,-0.9408,-0.94,-0.9405,-0.9405,-0.9403,-0.9392,-0.9389,-0.9389,-0.9382,-0.9383,-0.9383,-0.9383,-0.9382,-0.9374,-0.9374,0,0,0,0,0,0,-0.9435,-0.9432,-0.9418,-0.9417,-0.9424,-0.9414,-0.9412,-0.9409,-0.94,-0.9398,-0.9403,-0.9403,-0.939,-0.9389,-0.9388,-0.9385,-0.9383,-0.9382,-0.9382,-0.9374,-0.9374,-0.9374,0,0,0,0,0,0,-0.9435,-0.9434,-0.9418,-0.9424,-0.9422,-0.9414,-0.941,-0.9409,-0.9406,-0.9398,-0.9397,-0.9402,-0.939,-0.9389,-0.9385,-0.9385,-0.9382,-0.9382,-0.9374,-0.9374,-0.9374,-0.938,0,0,0,0,0,0,-0.9436,-0.9434,-0.9433,-0.9424,-0.9422,-0.9415,-0.941,-0.9409,-0.9405,-0.9405,-0.9397,-0.9395,-0.939,-0.9385,-0.9384,-0.9384,-0.9381,-0.9374,-0.9374,-0.9374,-0.938,-0.9381,-0.9381,0,0,0,0,0,-0.9437,-0.9436,-0.9433,-0.9431,-0.9421,-0.9415,-0.9413,-0.9407,-0.9406,-0.9405,-0.9399,-0.9395,-0.9385,-0.9385,-0.9383,-0.9383,-0.9373,-0.9374,-0.9374,-0.938,-0.9381,-0.9381,0,0,0,0,0,0,-0.9445,-0.9434,-0.9431,-0.9428,-0.9422,-0.9413,-0.9412,-0.9408,-0.9403,-0.9403,-0.9396,-0.9394,-0.9391,-0.9387,-0.9387,-0.9381,-0.9379,-0.9379,-0.9384,-0.9385,-0.9385,-0.9386,-0.9381,0,0,0,0,0,-0.9446,-0.9442,-0.9433,-0.9431,-0.9428,-0.9421,-0.9418,-0.9414,-0.9408,-0.9405,-0.94,-0.9394,-0.939,-0.9387,-0.9383,-0.938,-0.9378,-0.9379,-0.9379,-0.938,-0.938,-0.9378,-0.9378,-0.9374,-0.9374,-0.9374,0,0,-0.9449,-0.9443,-0.9441,-0.9432,-0.9427,-0.9423,-0.9419,-0.9415,-0.9412,-0.9405,-0.94,-0.9396,-0.939,-0.9386,-0.9384,-0.9383,-0.938,-0.938,-0.9381,-0.938,-0.9378,-0.9378,-0.9379,-0.9374,-0.9374,-0.9374,0,0,-0.9452,-0.9447,-0.9444,-0.9439,-0.9432,-0.9427,-0.9426,-0.9418,-0.9415,-0.9411,-0.9405,-0.9402,-0.9394,-0.939,-0.9386,-0.9388,-0.9384,-0.9386,-0.9389,-0.9387,-0.9387,-0.9388,-0.9388,-0.9388,-0.9386,-0.9386,-0.9386,0,-0.9456,-0.945,-0.9443,-0.9439,-0.9436,-0.9429,-0.9426,-0.9422,-0.9414,-0.9412,-0.941,-0.94,-0.9396,-0.9391,-0.9391,-0.9389,-0.9388,-0.9387,-0.9388,-0.9388,-0.9388,-0.9388,-0.9388,-0.9387,-0.9387,-0.9387,-0.9387,0,-0.9455,-0.9451,-0.9449,-0.9441,-0.9438,-0.9434,-0.9427,-0.9425,-0.9421,-0.9416,-0.9411,-0.9405,-0.9399,-0.9398,-0.9394,-0.9393,-0.9392,-0.9389,-0.9386,-0.9389,-0.9389,-0.9389,-0.9387,-0.9387,-0.9387,-0.9387,0,0,-0.9463,-0.9451,-0.945,-0.9446,-0.9438,-0.9435,-0.9431,-0.9425,-0.9423,-0.9417,-0.9414,-0.9408,-0.9405,-0.9402,-0.9397,-0.9396,-0.9397,-0.9393,-0.9393,-0.9394,-0.9394,-0.9396,-0.9396,-0.9394,-0.9394,-0.9394,-0.9395,0,-0.9464,-0.9457,-0.9451,-0.9446,-0.9442,-0.9436,-0.9432,-0.9427,-0.9423,-0.9419,-0.9414,-0.9409,-0.9406,-0.9404,-0.9402,-0.9397,-0.9397,-0.9397,-0.9391,-0.9391,-0.9393,-0.9396,-0.9398,-0.9399,-0.9395,-0.9395,-0.9395,0,-0.9464,-0.9459,-0.9454,-0.9445,-0.9443,-0.9441,-0.9434,-0.9431,-0.9425,-0.9421,-0.9417,-0.9413,-0.9409,-0.9407,-0.9401,-0.9402,-0.9399,-0.9396,-0.9396,-0.9395,-0.9393,-0.9395,-0.9399,-0.9399,-0.9395,-0.9395,-0.9395,0,-0.947,-0.9461,-0.9457,-0.9454,-0.9444,-0.9442,-0.9438,-0.9432,-0.9429,-0.9424,-0.9421,-0.9416,-0.9413,-0.9409,-0.9403,-0.9402,-0.9398,-0.9396,-0.9395,-0.9396,-0.9395,-0.9395,-0.9398,-0.9394,-0.9394,-0.9394,-0.9394,0,-0.9472,-0.9469,-0.9459,-0.9456,-0.9453,-0.9446,-0.9443,-0.9438,-0.9433,-0.9429,-0.9424,-0.942,-0.9413,-0.9409,-0.9405,-0.9401,-0.94,-0.9397,-0.9396,-0.9397,-0.9397,-0.9395,-0.9395,-0.9394,-0.9394,-0.9394,-0.9394,0,-0.9477,-0.9471,-0.9465,-0.9456,-0.9454,-0.9452,-0.9445,-0.9442,-0.9437,-0.9433,-0.9431,-0.9424,-0.9419,-0.9413,-0.9406,-0.9403,-0.9399,-0.9398,-0.9401,-0.9401,-0.9401,-0.9401,-0.9402,-0.9402,-0.9398,-0.9398,-0.9398,0,-0.9478,-0.9476,-0.9467,-0.9464,-0.946,-0.9455,-0.9452,-0.9445,-0.9442,-0.9434,-0.9432,-0.9427,-0.9422,-0.9415,-0.9409,-0.9404,-0.9402,-0.9402,-0.9401,-0.9402,-0.9401,-0.9401,-0.9401,-0.9403,-0.9403,-0.9403,-0.9403,0,-0.9481,-0.9478,-0.9473,-0.9467,-0.9463,-0.9458,-0.9452,-0.945,-0.9443,-0.9439,-0.9434,-0.943,-0.9423,-0.9418,-0.9412,-0.9408,-0.9404,-0.9404,-0.9403,-0.9404,-0.9406,-0.9405,-0.9402,-0.9403,-0.9403,-0.9403,-0.9403,-0.9403,-0.9484,-0.9482,-0.9475,-0.9469,-0.9465,-0.946,-0.9456,-0.9451,-0.9447,-0.944,-0.9437,-0.9431,-0.9425,-0.9417,-0.9413,-0.9409,-0.9408,-0.9407,-0.9407,-0.9407,-0.9407,-0.9407,-0.9408,-0.9408,-0.9408,-0.9408,-0.9408,0,-0.9487,-0.9482,-0.9477,-0.9469,-0.9465,-0.9462,-0.9456,-0.9453,-0.9448,-0.9442,-0.9438,-0.9432,-0.9427,-0.942,-0.9415,-0.9413,-0.9411,-0.9412,-0.9411,-0.9411,-0.9409,-0.941,-0.9413,-0.9413,-0.9413,-0.9413,-0.9413,-0.9413,-0.9487,-0.9482,-0.9479,-0.9471,-0.9467,-0.9461,-0.9458,-0.9453,-0.9449,-0.9442,-0.9438,-0.9434,-0.9428,-0.9422,-0.9417,-0.9416,-0.9414,-0.9415,-0.9413,-0.9411,-0.9411,-0.941,-0.9411,-0.9415,-0.9415,-0.9415,-0.9415,-0.9415]},{"header":{"parameterUnit":"m.s-1","parameterCategory":1,"la1":30.2991,"la2":30.254,"lo1":-89.0895,"lo2":-89.0444,"dy":0.0017,"dx":0.0017,"nx":28,"ny":28,"refTime":"2024-03-31T03:00:00:Z","depth":0,"parameterNumber":3,"parameterNumberName":"V-component_of_WINDS"},"data":[0,0,0,0,0,0,0,0,0,0,0,0,0,0,0,0,0,0,0,0,0,0,0,0,0,0,0,0,0,0,0,0,0,0,0,0,0,0,0,0,0,0,0,0,0,0,0,0,0,0,0,0,0,0,0,0,0,0,3.551,3.5512,0,3.5683,3.5684,3.5686,3.5716,3.5715,3.5713,3.5712,3.5885,3.5891,3.5897,0,0,0,0,0,0,0,0,0,0,0,0,0,3.5203,3.5208,3.5509,3.5512,3.5514,3.5682,3.5685,3.5687,3.5716,3.5714,3.5713,3.5711,3.5883,3.589,3.5898,0,0,0,0,0,0,0,0,0,0,0,0,0,3.5352,3.521,3.5509,3.5549,3.5554,3.5682,3.5685,3.5688,3.5717,3.5714,3.5712,3.571,3.5881,3.589,3.5899,3.5998,0,0,3.5926,3.593,0,0,0,0,0,0,0,0,3.5343,3.5363,3.5541,3.5546,3.5553,3.5676,3.564,3.5791,3.5717,3.5655,3.5712,3.5709,3.5817,3.5831,3.5868,3.6006,3.6013,3.5927,3.5932,3.5936,3.5939,0,0,0,0,0,0,0,3.5333,3.5356,3.5578,3.5543,3.5551,3.5557,3.5576,3.5669,3.5746,3.566,3.5663,3.5683,3.582,3.586,3.5873,3.6016,3.5926,3.5934,3.594,3.5943,3.6245,3.6248,0,0,0,0,0,0,3.5316,3.5347,3.5572,3.5583,3.544,3.5565,3.5586,3.5638,3.5745,3.5759,3.5685,3.5684,3.5845,3.5862,3.5879,3.6004,3.5936,3.5944,3.595,3.6242,3.6246,3.6248,0,0,0,0,0,0,3.5309,3.5336,3.5565,3.5466,3.5496,3.5572,3.5631,3.5643,3.5683,3.5764,3.5777,3.5711,3.5844,3.5866,3.5969,3.601,3.5948,3.5957,3.6239,3.6243,3.6247,3.6253,0,0,0,0,0,0,3.53,3.5333,3.5372,3.5466,3.5501,3.5653,3.5634,3.5648,3.5698,3.5699,3.5792,3.5806,3.5844,3.5955,3.5977,3.6021,3.5964,3.6236,3.6241,3.6246,3.6249,3.6257,3.6263,0,0,0,0,0,3.5289,3.5365,3.5374,3.5401,3.5551,3.5655,3.5675,3.5719,3.5702,3.5741,3.5794,3.5803,3.6001,3.5965,3.5991,3.6038,3.6234,3.624,3.6245,3.6246,3.6255,3.6263,0,0,0,0,0,0,3.5272,3.5378,3.5389,3.5498,3.5568,3.566,3.5712,3.5726,3.5801,3.5798,3.5848,3.5869,3.597,3.6013,3.5971,3.614,3.6116,3.6127,3.6108,3.6117,3.6124,3.6112,3.5971,0,0,0,0,0,3.5281,3.5358,3.5446,3.5534,3.5569,3.5634,3.5681,3.5709,3.5783,3.5812,3.5871,3.5942,3.602,3.6071,3.6147,3.6255,3.6277,3.63,3.6307,3.6312,3.6322,3.6384,3.6396,3.6268,3.6268,3.6268,0,0,3.5301,3.5368,3.5413,3.5533,3.559,3.5668,3.5659,3.5741,3.58,3.5824,3.5926,3.5971,3.6053,3.6159,3.6209,3.6199,3.6362,3.632,3.6323,3.633,3.6391,3.6403,3.6414,3.6272,3.6271,3.6271,0,0,3.5377,3.5435,3.5516,3.5574,3.5661,3.5704,3.5723,3.5815,3.5847,3.5949,3.597,3.6039,3.6173,3.6231,3.6278,3.6377,3.6389,3.64,3.6436,3.6496,3.6506,3.6515,3.6552,3.6565,3.6409,3.6409,3.6409,0,3.5389,3.5509,3.5555,3.5638,3.569,3.5717,3.58,3.5853,3.596,3.5996,3.5983,3.6153,3.621,3.6331,3.6355,3.6392,3.6416,3.6391,3.6501,3.6511,3.652,3.6556,3.657,3.641,3.641,3.641,3.641,0,3.5522,3.5604,3.5659,3.5764,3.5822,3.5904,3.5962,3.6015,3.6038,3.6083,3.6187,3.6256,3.6348,3.6379,3.6401,3.6504,3.6495,3.6491,3.6468,3.6533,3.6567,3.6581,3.6412,3.6411,3.6411,3.6411,0,0,3.5592,3.5723,3.5742,3.5791,3.589,3.5954,3.6037,3.6129,3.6175,3.6247,3.6319,3.6432,3.643,3.6483,3.6512,3.6564,3.6641,3.6554,3.6557,3.657,3.676,3.6764,3.6779,3.6648,3.6651,3.6653,3.6754,0,3.5681,3.5832,3.5877,3.6004,3.6081,3.6109,3.6181,3.6249,3.6293,3.6365,3.6412,3.6493,3.6482,3.6515,3.6568,3.662,3.668,3.6613,3.6716,3.6719,3.6697,3.6797,3.6801,3.6893,3.6768,3.677,3.6772,0,3.5805,3.5883,3.6018,3.6109,3.6144,3.6208,3.6297,3.6365,3.6443,3.6471,3.6531,3.6556,3.6643,3.6615,3.6736,3.669,3.6734,3.6766,3.6771,3.6784,3.6751,3.6814,3.6923,3.6937,3.6793,3.6791,3.679,0,3.5846,3.5984,3.6083,3.6124,3.6232,3.6277,3.6324,3.64,3.6453,3.6529,3.6564,3.6649,3.6696,3.676,3.6808,3.6782,3.6926,3.69,3.6952,3.6951,3.6983,3.698,3.7102,3.7008,3.7008,3.7007,3.7007,0,3.5942,3.6024,3.6103,3.6165,3.6258,3.6308,3.6398,3.6446,3.6513,3.6584,3.6611,3.6677,3.6734,3.6808,3.6844,3.6941,3.6961,3.6986,3.6996,3.6985,3.6982,3.7016,3.7012,3.7011,3.701,3.7009,3.7009,0,3.6003,3.6059,3.617,3.6264,3.6289,3.6354,3.6434,3.6494,3.6539,3.6629,3.6652,3.6722,3.681,3.6863,3.6973,3.6998,3.7105,3.7111,3.708,3.7085,3.7134,3.7129,3.7283,3.7307,3.7195,3.7196,3.7197,0,3.6062,3.6126,3.6227,3.6278,3.6326,3.6406,3.6461,3.6512,3.6568,3.6662,3.6711,3.6801,3.6876,3.7015,3.7075,3.716,3.7169,3.7217,3.7182,3.717,3.7172,3.7169,3.7176,3.7223,3.7224,3.7225,3.7226,0,3.616,3.6185,3.6264,3.6353,3.6418,3.649,3.6562,3.6601,3.6664,3.6725,3.6817,3.6875,3.6989,3.7078,3.7168,3.7215,3.7232,3.7236,3.7253,3.7244,3.7225,3.7238,3.7098,3.7233,3.7232,3.7231,3.7231,3.7231,3.6224,3.6283,3.6365,3.6452,3.6511,3.6578,3.664,3.6694,3.6771,3.687,3.6894,3.699,3.7067,3.7191,3.724,3.7315,3.7308,3.7332,3.7338,3.7344,3.7346,3.7211,3.7332,3.7331,3.7331,3.7331,3.7331,0,3.6326,3.638,3.6459,3.656,3.6629,3.6639,3.6719,3.6776,3.6861,3.6932,3.7006,3.7111,3.7198,3.7265,3.7354,3.7402,3.7412,3.7424,3.7422,3.7433,3.7347,3.7324,3.7414,3.7414,3.7414,3.7414,3.7414,3.7414,3.6387,3.6489,3.6524,3.6656,3.6709,3.6805,3.685,3.6912,3.6969,3.7086,3.716,3.7203,3.7274,3.7368,3.7448,3.7466,3.7498,3.7509,3.7528,3.7447,3.7438,3.743,3.7409,3.7515,3.7516,3.7608,3.7609,3.761]}]]